QPF
0.01 0.01 0.01 0.01 0.01 0.01 0.01 0.01 0.00 0.00 0.00 0.01 0.01 0.01 0.01 0.01 0.00 0.00 0.00 0.01 0.01 0.01 0.01 0.01 0.01 0.01 0.01 0.01 0.01 0.02 0.03 0.02 0.02 0.01 0.01 0.01 0.01 0.00 0.00 0.01 0.01 0.02 0.03
0.01 0.01 0.02 0.01 0.01 0.01 0.01 0.01 0.01 0.00 0.00 0.01 0.01 0.01 0.01 0.00 0.00 0.00 0.00 0.01 0.01 0.01 0.01 0.01 0.01 0.01 0.01 0.01 0.01 0.01 0.02 0.02 0.02 0.02 0.02 0.02 0.01 0.00 0.00 0.00 0.01 0.01 0.01
0.00 0.02 0.02 0.02 0.02 0.02 0.02 0.02 0.02 0.01 0.01 0.01 0.00 0.00 0.00 0.00 0.00 0.01 0.01 0.01 0.01 0.01 0.01 0.01 0.01 0.01 0.02 0.01 0.01 0.01 0.01 0.01 0.02 0.02 0.02 0.02 0.01 0.01 0.01 0.01 0.01 0.01 0.01
0.01 0.02 0.03 0.03 0.02 0.02 0.02 0.02 0.03 0.04 0.04 0.03 0.02 0.02 0.02 0.01 0.01 0.01 0.01 0.01 0.02 0.02 0.01 0.01 0.01 0.01 0.02 0.01 0.01 0.01 0.01 0.02 0.03 0.05 0.03 0.02 0.01 0.01 0.02 0.03 0.02 0.01 0.01
0.01 0.01 0.02 0.02 0.02 0.02 0.01 0.01 0.01 0.01 0.02 0.02 0.03 0.03 0.03 0.02 0.02 0.03 0.02 0.02 0.02 0.02 0.02 0.02 0.02 0.02 0.02 0.02 0.01 0.01 0.01 0.02 0.03 0.05 0.04 0.03 0.03 0.03 0.04 0.03 0.01 0.01 0.02
0.00 0.01 0.01 0.02 0.02 0.02 0.02 0.02 0.02 0.01 0.01 0.01 0.02 0.02 0.02 0.02 0.03 0.03 0.03 0.02 0.02 0.02 0.02 0.02 0.02 0.02 0.02 0.02 0.02 0.02 0.02 0.02 0.03 0.04 0.04 0.04 0.04 0.04 0.03 0.02 0.02 0.01 0.02
0.01 0.01 0.02 0.02 0.02 0.02 0.02 0.02 0.03 0.03 0.02 0.02 0.02 0.01 0.02 0.02 0.03 0.03 0.03 0.02 0.02 0.02 0.02 0.02 0.02 0.02 0.02 0.02 0.02 0.03 0.02 0.02 0.02 0.03 0.04 0.03 0.03 0.03 0.03 0.02 0.02 0.02 0.01
0.01 0.02 0.02 0.02 0.02 0.02 0.02 0.02 0.02 0.02 0.02 0.02 0.02 0.02 0.02 0.02 0.02 0.03 0.03 0.03 0.02 0.03 0.02 0.02 0.02 0.02 0.02 0.03 0.02 0.02 0.02 0.02 0.02 0.03 0.03 0.02 0.02 0.02 0.01 0.02 0.02 0.02 0.02
0.01 0.01 0.02 0.03 0.02 0.02 0.02 0.02 0.01 0.01 0.01 0.01 0.01 0.01 0.01 0.01 0.02 0.03 0.03 0.03 0.02 0.02 0.02 0.02 0.02 0.02 0.02 0.04 0.03 0.02 0.01 0.01 0.02 0.02 0.01 0.01 0.01 0.01 0.01 0.02 0.03 0.03 0.02
0.00 0.00 0.01 0.01 0.02 0.01 0.01 0.01 0.01 0.02 0.02 0.02 0.02 0.02 0.02 0.02 0.03 0.03 0.02 0.02 0.01 0.01 0.01 0.01 0.01 0.01 0.02 0.03 0.03 0.02 0.01 0.01 0.01 0.02 0.02 0.01 0.01 0.01 0.01 0.02 0.03 0.02 0.02
0.00 0.00 0.00 0.01 0.01 0.01 0.01 0.01 0.01 0.02 0.02 0.03 0.02 0.02 0.02 0.02 0.03 0.03 0.02 0.01 0.01 0.01 0.01 0.01 0.01 0.02 0.02 0.03 0.03 0.03 0.02 0.02 0.02 0.02 0.02 0.01 0.01 0.01 0.01 0.03 0.03 0.02 0.02
0.00 0.00 0.00 0.00 0.01 0.00 0.00 0.00 0.01 0.01 0.01 0.01 0.02 0.01 0.01 0.01 0.01 0.01 0.01 0.01 0.01 0.01 0.01 0.01 0.01 0.02 0.03 0.04 0.04 0.03 0.03 0.03 0.02 0.02 0.01 0.01 0.01 0.02 0.02 0.04 0.03 0.02 0.02
0.00 0.00 0.00 0.00 0.01 0.01 0.00 0.00 0.01 0.01 0.01 0.01 0.01 0.01 0.01 0.01 0.01 0.01 0.01 0.01 0.01 0.01 0.01 0.01 0.01 0.02 0.03 0.03 0.03 0.03 0.03 0.02 0.02 0.02 0.02 0.02 0.02 0.02 0.03 0.05 0.05 0.04 0.03
0.00 0.00 0.00 0.00 0.00 0.00 0.00 0.01 0.01 0.01 0.01 0.01 0.01 0.01 0.01 0.01 0.01 0.01 0.01 0.01 0.01 0.01 0.01 0.02 0.02 0.02 0.02 0.02 0.02 0.03 0.03 0.03 0.03 0.03 0.03 0.03 0.04 0.04 0.06 0.06 0.05 0.04 0.04
0.00 0.00 0.01 0.01 0.00 0.00 0.00 0.01 0.01 0.01 0.01 0.01 0.01 0.02 0.02 0.02 0.02 0.01 0.01 0.01 0.01 0.01 0.01 0.01 0.01 0.01 0.01 0.02 0.02 0.02 0.02 0.02 0.03 0.03 0.03 0.03 0.04 0.04 0.05 0.06 0.05 0.05 0.04
0.00 0.00 0.01 0.01 0.01 0.00 0.01 0.01 0.01 0.01 0.01 0.01 0.01 0.01 0.01 0.02 0.02 0.02 0.02 0.02 0.02 0.02 0.02 0.01 0.01 0.01 0.01 0.02 0.03 0.03 0.03 0.03 0.03 0.03 0.04 0.04 0.04 0.04 0.05 0.05 0.05 0.05 0.04
0.00 0.00 0.00 0.01 0.01 0.01 0.01 0.01 0.01 0.01 0.01 0.01 0.01 0.01 0.02 0.02 0.02 0.02 0.02 0.02 0.02 0.02 0.02 0.02 0.02 0.02 0.02 0.03 0.03 0.04 0.03 0.04 0.04 0.04 0.03 0.04 0.04 0.04 0.05 0.05 0.05 0.05 0.05
0.00 0.00 0.00 0.00 0.01 0.01 0.01 0.02 0.02 0.02 0.02 0.02 0.02 0.01 0.01 0.02 0.02 0.03 0.03 0.03 0.03 0.02 0.02 0.02 0.02 0.02 0.02 0.03 0.03 0.03 0.03 0.03 0.04 0.04 0.04 0.03 0.02 0.03 0.03 0.04 0.05 0.06 0.06
0.01 0.01 0.01 0.01 0.01 0.01 0.02 0.01 0.01 0.02 0.02 0.02 0.02 0.02 0.02 0.02 0.02 0.02 0.03 0.02 0.02 0.02 0.02 0.02 0.02 0.02 0.02 0.02 0.02 0.02 0.03 0.03 0.03 0.03 0.04 0.03 0.02 0.03 0.03 0.04 0.04 0.05 0.06
0.02 0.02 0.01 0.01 0.01 0.01 0.01 0.01 0.01 0.02 0.02 0.02 0.02 0.02 0.03 0.03 0.03 0.03 0.03 0.02 0.02 0.02 0.01 0.01 0.01 0.01 0.01 0.01 0.01 0.02 0.02 0.02 0.02 0.02 0.03 0.02 0.02 0.03 0.03 0.03 0.04 0.04 0.04
0.02 0.02 0.01 0.01 0.01 0.01 0.01 0.01 0.02 0.02 0.02 0.02 0.02 0.02 0.02 0.03 0.03 0.03 0.03 0.02 0.02 0.02 0.02 0.01 0.01 0.01 0.01 0.01 0.01 0.01 0.01 0.02 0.02 0.02 0.02 0.02 0.02 0.02 0.03 0.03 0.03 0.04 0.04
0.01 0.01 0.01 0.01 0.01 0.01 0.01 0.01 0.02 0.03 0.03 0.03 0.03 0.04 0.04 0.03 0.03 0.03 0.03 0.02 0.02 0.02 0.02 0.01 0.01 0.01 0.01 0.01 0.01 0.01 0.01 0.01 0.02 0.02 0.02 0.02 0.02 0.02 0.02 0.02 0.02 0.03 0.04
0.01 0.01 0.02 0.01 0.01 0.01 0.01 0.02 0.03 0.03 0.04 0.05 0.05 0.04 0.04 0.04 0.05 0.04 0.04 0.03 0.03 0.02 0.02 0.02 0.02 0.02 0.01 0.01 0.01 0.01 0.01 0.01 0.02 0.02 0.03 0.03 0.03 0.03 0.03 0.03 0.03 0.02 0.03
0.01 0.01 0.01 0.01 0.01 0.01 0.02 0.02 0.03 0.04 0.05 0.05 0.05 0.05 0.05 0.05 0.05 0.05 0.05 0.05 0.05 0.04 0.03 0.02 0.02 0.02 0.02 0.02 0.01 0.01 0.01 0.01 0.02 0.02 0.03 0.03 0.03 0.03 0.03 0.04 0.04 0.03 0.03
0.01 0.01 0.01 0.01 0.02 0.02 0.02 0.02 0.03 0.04 0.04 0.04 0.04 0.05 0.05 0.06 0.05 0.04 0.03 0.03 0.03 0.03 0.03 0.03 0.02 0.02 0.02 0.02 0.02 0.02 0.02 0.02 0.02 0.02 0.03 0.03 0.03 0.03 0.03 0.04 0.04 0.03 0.03
0.01 0.01 0.01 0.01 0.01 0.02 0.02 0.02 0.02 0.03 0.03 0.03 0.03 0.04 0.05 0.04 0.04 0.03 0.03 0.02 0.02 0.02 0.02 0.02 0.02 0.02 0.02 0.02 0.03 0.03 0.03 0.02 0.02 0.02 0.03 0.04 0.03 0.03 0.03 0.03 0.04 0.04 0.03
MSLP
1018.28 1018.59 1018.87 1019.09 1019.24 1019.30 1019.29 1019.23 1019.12 1019.00 1018.88 1018.77 1018.66 1018.55 1018.42 1018.26 1018.05 1017.81 1017.52 1017.19 1016.86 1016.52 1016.18 1015.85 1015.51 1015.16 1014.79 1014.38 1013.93 1013.45 1012.94 1012.40 1011.84 1011.27 1010.69 1010.10 1009.50 1008.89 1008.28 1007.69 1007.14 1006.67 1006.32
1018.19 1018.46 1018.69 1018.88 1019.01 1019.06 1019.06 1019.00 1018.90 1018.79 1018.66 1018.53 1018.41 1018.28 1018.13 1017.96 1017.76 1017.52 1017.25 1016.95 1016.64 1016.31 1015.97 1015.62 1015.25 1014.86 1014.45 1014.00 1013.53 1013.04 1012.54 1012.04 1011.53 1011.01 1010.48 1009.93 1009.34 1008.73 1008.08 1007.43 1006.81 1006.25 1005.81
1018.12 1018.35 1018.55 1018.70 1018.81 1018.85 1018.84 1018.78 1018.68 1018.56 1018.42 1018.27 1018.11 1017.95 1017.78 1017.59 1017.38 1017.16 1016.92 1016.65 1016.37 1016.07 1015.74 1015.39 1015.00 1014.57 1014.11 1013.62 1013.12 1012.61 1012.11 1011.62 1011.14 1010.67 1010.19 1009.68 1009.12 1008.50 1007.83 1007.14 1006.45 1005.82 1005.29
1018.03 1018.23 1018.41 1018.53 1018.62 1018.65 1018.63 1018.57 1018.46 1018.32 1018.15 1017.97 1017.77 1017.57 1017.37 1017.16 1016.95 1016.74 1016.52 1016.29 1016.04 1015.77 1015.46 1015.10 1014.70 1014.24 1013.73 1013.20 1012.65 1012.11 1011.59 1011.10 1010.64 1010.20 1009.76 1009.29 1008.77 1008.18 1007.52 1006.81 1006.09 1005.40 1004.81
1017.88 1018.08 1018.23 1018.34 1018.41 1018.43 1018.41 1018.33 1018.21 1018.05 1017.86 1017.65 1017.42 1017.18 1016.94 1016.71 1016.49 1016.27 1016.07 1015.86 1015.64 1015.39 1015.09 1014.74 1014.31 1013.82 1013.27 1012.68 1012.07 1011.48 1010.92 1010.41 1009.95 1009.53 1009.13 1008.71 1008.25 1007.72 1007.11 1006.44 1005.73 1005.02 1004.39
1017.66 1017.86 1018.01 1018.11 1018.17 1018.18 1018.14 1018.06 1017.94 1017.77 1017.56 1017.33 1017.07 1016.80 1016.53 1016.27 1016.02 1015.80 1015.59 1015.40 1015.18 1014.94 1014.65 1014.28 1013.83 1013.29 1012.68 1012.02 1011.34 1010.68 1010.06 1009.51 1009.03 1008.62 1008.25 1007.90 1007.52 1007.08 1006.57 1005.98 1005.34 1004.68 1004.05
1017.37 1017.57 1017.72 1017.81 1017.86 1017.87 1017.83 1017.75 1017.63 1017.46 1017.25 1017.01 1016.73 1016.44 1016.15 1015.87 1015.60 1015.36 1015.14 1014.93 1014.71 1014.45 1014.13 1013.73 1013.24 1012.64 1011.96 1011.22 1010.45 1009.70 1009.01 1008.39 1007.88 1007.46 1007.13 1006.84 1006.55 1006.24 1005.87 1005.42 1004.90 1004.34 1003.77
1017.04 1017.24 1017.38 1017.46 1017.50 1017.51 1017.47 1017.40 1017.28 1017.13 1016.94 1016.70 1016.44 1016.15 1015.85 1015.55 1015.26 1014.99 1014.74 1014.50 1014.24 1013.95 1013.59 1013.14 1012.58 1011.92 1011.15 1010.32 1009.45 1008.59 1007.80 1007.11 1006.53 1006.09 1005.77 1005.55 1005.36 1005.18 1004.97 1004.69 1004.35 1003.93 1003.49
1016.70 1016.89 1017.01 1017.08 1017.11 1017.10 1017.07 1017.00 1016.91 1016.78 1016.62 1016.42 1016.18 1015.91 1015.61 1015.31 1015.01 1014.71 1014.42 1014.13 1013.83 1013.48 1013.05 1012.54 1011.92 1011.17 1010.32 1009.38 1008.41 1007.44 1006.54 1005.75 1005.10 1004.61 1004.28 1004.09 1003.99 1003.94 1003.89 1003.80 1003.64 1003.41 1003.11
1016.39 1016.54 1016.64 1016.68 1016.69 1016.67 1016.63 1016.58 1016.51 1016.42 1016.30 1016.14 1015.95 1015.71 1015.44 1015.14 1014.83 1014.51 1014.18 1013.84 1013.47 1013.06 1012.57 1011.99 1011.29 1010.47 1009.54 1008.51 1007.43 1006.36 1005.34 1004.44 1003.69 1003.13 1002.76 1002.57 1002.52 1002.56 1002.64 1002.71 1002.74 1002.69 1002.57
1016.11 1016.22 1016.28 1016.28 1016.25 1016.21 1016.17 1016.12 1016.08 1016.02 1015.95 1015.85 1015.71 1015.52 1015.28 1015.00 1014.69 1014.35 1013.98 1013.60 1013.18 1012.71 1012.17 1011.52 1010.77 1009.89 1008.89 1007.78 1006.62 1005.45 1004.33 1003.32 1002.46 1001.80 1001.35 1001.11 1001.05 1001.13 1001.29 1001.48 1001.65 1001.77 1001.81
1015.86 1015.93 1015.93 1015.88 1015.81 1015.74 1015.68 1015.63 1015.60 1015.58 1015.56 1015.51 1015.42 1015.28 1015.09 1014.83 1014.53 1014.18 1013.80 1013.38 1012.92 1012.41 1011.83 1011.15 1010.37 1009.45 1008.42 1007.28 1006.06 1004.81 1003.60 1002.48 1001.51 1000.73 1000.17 999.84 999.71 999.76 999.93 1000.17 1000.43 1000.65 1000.82
1015.63 1015.63 1015.58 1015.48 1015.36 1015.25 1015.16 1015.11 1015.08 1015.09 1015.10 1015.09 1015.05 1014.96 1014.81 1014.59 1014.31 1013.97 1013.58 1013.15 1012.68 1012.15 1011.56 1010.88 1010.09 1009.19 1008.16 1007.01 1005.78 1004.50 1003.22 1002.01 1000.93 1000.02 999.32 998.85 998.60 998.55 998.66 998.87 999.14 999.42 999.67
1015.38 1015.33 1015.21 1015.06 1014.89 1014.74 1014.62 1014.55 1014.52 1014.53 1014.56 1014.59 1014.59 1014.54 1014.43 1014.24 1013.99 1013.68 1013.30 1012.89 1012.42 1011.91 1011.34 1010.69 1009.94 1009.08 1008.10 1006.99 1005.78 1004.50 1003.20 1001.93 1000.75 999.71 998.87 998.24 997.82 997.62 997.60 997.71 997.92 998.17 998.44
1015.11 1015.00 1014.83 1014.63 1014.42 1014.23 1014.08 1013.98 1013.94 1013.94 1013.98 1014.02 1014.05 1014.03 1013.95 1013.80 1013.58 1013.30 1012.97 1012.58 1012.16 1011.69 1011.17 1010.58 1009.90 1009.12 1008.21 1007.18 1006.03 1004.79 1003.49 1002.20 1000.95 999.81 998.82 998.03 997.43 997.04 996.84 996.80 996.88 997.05 997.26
1014.82 1014.67 1014.46 1014.22 1013.97 1013.75 1013.57 1013.45 1013.38 1013.37 1013.39 1013.43 1013.46 1013.46 1013.41 1013.29 1013.12 1012.88 1012.59 1012.26 1011.89 1011.49 1011.04 1010.53 1009.94 1009.25 1008.45 1007.51 1006.45 1005.28 1004.03 1002.75 1001.47 1000.26 999.16 998.21 997.43 996.85 996.45 996.22 996.13 996.16 996.28
1014.56 1014.37 1014.14 1013.88 1013.61 1013.36 1013.16 1013.00 1012.91 1012.86 1012.86 1012.89 1012.91 1012.91 1012.88 1012.80 1012.66 1012.47 1012.24 1011.97 1011.67 1011.33 1010.96 1010.53 1010.03 1009.45 1008.74 1007.91 1006.96 1005.88 1004.70 1003.45 1002.18 1000.94 999.77 998.70 997.78 997.02 996.43 996.00 995.73 995.59 995.58
1014.37 1014.18 1013.93 1013.66 1013.39 1013.13 1012.89 1012.71 1012.58 1012.50 1012.46 1012.45 1012.46 1012.46 1012.43 1012.37 1012.27 1012.13 1011.95 1011.74 1011.51 1011.24 1010.93 1010.58 1010.16 1009.66 1009.05 1008.32 1007.46 1006.47 1005.38 1004.20 1002.98 1001.74 1000.54 999.41 998.38 997.48 996.73 996.13 995.68 995.37 995.21
1014.33 1014.13 1013.89 1013.63 1013.35 1013.08 1012.83 1012.61 1012.44 1012.32 1012.24 1012.19 1012.16 1012.14 1012.12 1012.07 1012.00 1011.90 1011.77 1011.62 1011.44 1011.22 1010.97 1010.67 1010.30 1009.86 1009.31 1008.66 1007.88 1006.98 1005.98 1004.88 1003.73 1002.53 1001.35 1000.20 999.12 998.14 997.27 996.53 995.92 995.46 995.14
1014.46 1014.28 1014.05 1013.80 1013.53 1013.25 1012.98 1012.73 1012.52 1012.34 1012.21 1012.11 1012.05 1012.00 1011.96 1011.92 1011.87 1011.81 1011.72 1011.60 1011.45 1011.27 1011.05 1010.77 1010.43 1010.01 1009.50 1008.89 1008.17 1007.35 1006.43 1005.42 1004.34 1003.22 1002.09 1000.97 999.89 998.87 997.94 997.10 996.38 995.78 995.33
1014.78 1014.62 1014.41 1014.18 1013.91 1013.62 1013.33 1013.05 1012.79 1012.56 1012.36 1012.21 1012.10 1012.02 1011.96 1011.92 1011.88 1011.83 1011.77 1011.67 1011.55 1011.37 1011.16 1010.88 1010.53 1010.11 1009.60 1009.01 1008.32 1007.55 1006.69 1005.76 1004.78 1003.75 1002.69 1001.64 1000.59 999.59 998.63 997.75 996.95 996.25 995.69
1015.27 1015.13 1014.94 1014.72 1014.45 1014.15 1013.84 1013.52 1013.21 1012.92 1012.66 1012.45 1012.29 1012.17 1012.09 1012.03 1011.99 1011.95 1011.90 1011.81 1011.69 1011.51 1011.27 1010.97 1010.60 1010.15 1009.62 1009.02 1008.34 1007.60 1006.79 1005.93 1005.02 1004.08 1003.12 1002.14 1001.17 1000.21 999.27 998.38 997.54 996.78 996.13
1015.87 1015.74 1015.57 1015.35 1015.08 1014.77 1014.43 1014.07 1013.71 1013.36 1013.05 1012.79 1012.57 1012.41 1012.30 1012.23 1012.18 1012.13 1012.07 1011.99 1011.85 1011.65 1011.39 1011.05 1010.64 1010.15 1009.59 1008.96 1008.27 1007.54 1006.76 1005.95 1005.11 1004.25 1003.37 1002.49 1001.59 1000.69 999.80 998.92 998.09 997.30 996.61
1016.50 1016.38 1016.21 1015.99 1015.72 1015.39 1015.02 1014.63 1014.23 1013.84 1013.48 1013.16 1012.91 1012.71 1012.57 1012.47 1012.40 1012.34 1012.28 1012.17 1012.02 1011.80 1011.51 1011.13 1010.68 1010.15 1009.55 1008.89 1008.19 1007.45 1006.69 1005.91 1005.13 1004.33 1003.52 1002.71 1001.88 1001.05 1000.21 999.37 998.56 997.77 997.06
1017.08 1016.97 1016.81 1016.58 1016.30 1015.96 1015.57 1015.16 1014.73 1014.31 1013.91 1013.56 1013.27 1013.04 1012.87 1012.75 1012.66 1012.58 1012.50 1012.38 1012.21 1011.96 1011.64 1011.24 1010.75 1010.18 1009.55 1008.87 1008.15 1007.41 1006.66 1005.90 1005.14 1004.38 1003.62 1002.86 1002.09 1001.31 1000.52 999.73 998.95 998.19 997.48
1017.59 1017.47 1017.30 1017.08 1016.79 1016.45 1016.06 1015.63 1015.19 1014.76 1014.35 1013.98 1013.66 1013.41 1013.21 1013.07 1012.95 1012.85 1012.75 1012.61 1012.42 1012.15 1011.81 1011.39 1010.88 1010.30 1009.65 1008.96 1008.23 1007.48 1006.72 1005.97 1005.22 1004.48 1003.74 1003.01 1002.27 1001.52 1000.77 1000.02 999.28 998.56 997.87
Thickness
5685 5683 5680 5677 5675 5673 5671 5669 5667 5665 5664 5662 5660 5658 5656 5654 5652 5649 5647 5646 5644 5643 5642 5641 5639 5638 5636 5635 5634 5633 5631 5629 5625 5628 5632 5634 5635 5636 5637 5638 5639 5639 5639
5681 5679 5676 5674 5671 5668 5666 5664 5662 5660 5659 5658 5656 5653 5651 5649 5647 5645 5642 5640 5638 5637 5636 5635 5633 5633 5631 5630 5629 5628 5626 5626 5623 5621 5624 5626 5628 5629 5631 5631 5633 5633 5634
5676 5673 5670 5668 5666 5663 5661 5659 5657 5655 5653 5652 5650 5648 5646 5644 5642 5640 5638 5636 5634 5632 5631 5629 5629 5628 5626 5625 5624 5622 5621 5622 5620 5618 5618 5619 5621 5623 5623 5625 5626 5627 5628
5671 5668 5665 5663 5660 5658 5656 5654 5652 5650 5647 5646 5644 5643 5640 5639 5637 5634 5632 5631 5629 5627 5626 5625 5623 5623 5621 5620 5619 5617 5616 5615 5614 5612 5612 5612 5613 5616 5616 5615 5616 5618 5620
5665 5662 5659 5658 5656 5653 5651 5649 5647 5644 5643 5640 5638 5636 5635 5633 5631 5628 5626 5624 5622 5621 5620 5619 5618 5618 5617 5615 5614 5611 5610 5608 5606 5605 5604 5605 5605 5606 5606 5608 5608 5610 5611
5659 5656 5654 5652 5649 5647 5645 5643 5641 5638 5636 5635 5632 5630 5628 5627 5625 5622 5620 5618 5616 5614 5613 5613 5612 5612 5611 5610 5608 5607 5605 5602 5600 5599 5598 5597 5598 5599 5600 5601 5600 5600 5600
5653 5651 5648 5645 5642 5640 5639 5636 5633 5631 5629 5627 5625 5623 5621 5619 5618 5616 5613 5611 5610 5609 5608 5606 5607 5606 5605 5603 5601 5600 5599 5598 5596 5594 5592 5592 5592 5593 5593 5593 5592 5592 5593
5647 5644 5642 5639 5636 5633 5631 5629 5626 5625 5622 5620 5618 5617 5614 5612 5611 5609 5607 5605 5603 5603 5602 5601 5600 5599 5598 5596 5595 5593 5592 5591 5590 5589 5587 5587 5587 5587 5586 5586 5586 5587 5588
5640 5637 5635 5633 5629 5626 5623 5621 5619 5617 5615 5613 5612 5610 5607 5605 5604 5602 5600 5597 5596 5596 5596 5595 5593 5592 5591 5590 5587 5585 5584 5583 5583 5582 5581 5581 5580 5580 5579 5578 5577 5576 5576
5633 5631 5629 5626 5623 5620 5617 5615 5613 5611 5609 5608 5606 5604 5601 5599 5597 5595 5592 5591 5589 5589 5589 5587 5586 5584 5583 5581 5579 5578 5575 5574 5574 5573 5572 5572 5572 5572 5572 5570 5569 5567 5567
5627 5624 5622 5619 5616 5614 5611 5608 5606 5604 5602 5600 5598 5597 5595 5593 5590 5587 5585 5583 5582 5581 5580 5579 5578 5576 5574 5573 5571 5570 5569 5567 5566 5565 5564 5564 5564 5563 5563 5563 5563 5561 5560
5619 5616 5613 5611 5609 5607 5603 5601 5598 5596 5593 5591 5589 5588 5587 5585 5583 5580 5578 5576 5575 5573 5572 5571 5570 5568 5566 5565 5563 5562 5561 5560 5559 5557 5556 5555 5555 5555 5556 5556 5556 5555 5554
5609 5606 5604 5602 5600 5598 5595 5591 5589 5586 5583 5582 5580 5578 5577 5576 5574 5573 5570 5568 5567 5565 5564 5563 5561 5559 5557 5555 5554 5553 5552 5550 5549 5548 5547 5547 5548 5548 5548 5548 5547 5547 5546
5600 5598 5595 5592 5590 5588 5585 5582 5579 5576 5573 5572 5570 5569 5568 5567 5564 5563 5561 5558 5556 5554 5553 5552 5551 5549 5547 5546 5544 5543 5542 5541 5540 5539 5539 5539 5539 5539 5538 5538 5537 5537 5536
5592 5589 5586 5582 5579 5576 5573 5570 5569 5567 5564 5562 5561 5559 5558 5556 5555 5554 5551 5549 5547 5545 5543 5541 5539 5537 5536 5536 5535 5534 5533 5532 5531 5531 5530 5530 5529 5529 5529 5529 5528 5528 5527
5582 5579 5576 5572 5569 5566 5562 5559 5558 5557 5556 5554 5553 5551 5549 5548 5546 5545 5543 5541 5539 5536 5533 5532 5531 5530 5528 5527 5527 5525 5525 5524 5524 5523 5522 5521 5520 5520 5520 5520 5520 5519 5519
5574 5571 5567 5564 5560 5557 5554 5551 5548 5547 5546 5545 5544 5542 5540 5539 5537 5535 5534 5532 5530 5527 5524 5523 5523 5522 5521 5520 5518 5517 5517 5516 5516 5514 5514 5513 5512 5512 5512 5512 5512 5511 5511
5566 5563 5559 5555 5552 5549 5547 5544 5542 5539 5537 5535 5534 5533 5531 5530 5528 5527 5524 5522 5519 5518 5516 5515 5513 5513 5512 5511 5510 5509 5509 5508 5507 5506 5505 5505 5505 5504 5504 5504 5503 5503 5503
5557 5554 5550 5547 5544 5542 5540 5537 5535 5533 5530 5528 5525 5524 5523 5521 5519 5517 5515 5513 5511 5510 5508 5506 5505 5504 5504 5503 5502 5501 5500 5499 5498 5497 5497 5496 5496 5495 5495 5496 5496 5496 5495
5548 5545 5542 5538 5536 5534 5532 5529 5527 5524 5522 5520 5518 5516 5514 5512 5509 5508 5506 5504 5503 5502 5500 5499 5498 5497 5495 5494 5494 5493 5492 5491 5490 5489 5488 5488 5488 5487 5488 5488 5488 5487 5487
5539 5536 5534 5530 5528 5526 5523 5521 5518 5516 5514 5512 5511 5510 5508 5505 5503 5501 5498 5496 5494 5493 5492 5491 5490 5489 5488 5486 5486 5484 5483 5482 5482 5481 5480 5480 5480 5480 5480 5479 5479 5479 5479
5530 5527 5524 5522 5519 5517 5515 5513 5510 5508 5506 5504 5502 5501 5500 5497 5495 5492 5490 5488 5486 5485 5485 5483 5483 5482 5481 5479 5478 5477 5475 5474 5474 5473 5472 5471 5471 5472 5472 5471 5471 5471 5471
5521 5518 5516 5513 5511 5509 5506 5503 5501 5499 5497 5496 5494 5492 5490 5489 5487 5485 5483 5481 5479 5478 5477 5475 5474 5474 5473 5471 5471 5470 5468 5467 5466 5465 5464 5463 5463 5463 5463 5463 5463 5463 5463
5512 5510 5507 5505 5503 5501 5498 5495 5493 5491 5489 5488 5486 5484 5482 5480 5478 5477 5475 5473 5472 5470 5469 5468 5466 5466 5465 5464 5463 5462 5461 5460 5459 5458 5457 5456 5456 5455 5455 5455 5456 5456 5455
5504 5501 5499 5497 5495 5492 5491 5488 5485 5483 5481 5480 5478 5476 5474 5472 5470 5468 5467 5465 5464 5463 5461 5460 5459 5458 5457 5456 5455 5454 5453 5452 5451 5450 5450 5449 5449 5448 5448 5448 5448 5448 5448
5495 5493 5490 5488 5486 5484 5482 5480 5477 5475 5473 5471 5469 5467 5465 5463 5462 5460 5459 5457 5456 5455 5454 5453 5451 5450 5449 5448 5447 5446 5445 5444 5444 5443 5442 5441 5441 5441 5441 5441 5441 5441 5440